Notices

What's New in latest Release from April 7th, 2021:

- Updated Glossary, including Speed of Maximum Gust, and Total Hourly Precipitation

- Updated national and regional climate services offices contacts and prices information

- Addition of station inventory lists for 1981-2010, 1971-2000, and 1961-1990 Normals.

If you haven't already, please take our survey and provide feedback about our website: https://eccc.sondage-survey.ca/f/LanguageSelection.aspx?s=442ca660-fcf1-47c0-95a9-59707d6fd709

Hourly Data Report for April 26, 2018

MIRAMICHI RCS
NEW BRUNSWICK
Current Station Operator: ECCC - MSC

47°00'34.000" N
65°27'54.000" W
33.00 m
8100989
71744
ACQ

Download Data

Hourly Data (April 2018)
Hourly Data Report for April 26, 2018
TIME
LST
Temp Definition
°C
Dew Point Definition
°C
Rel Hum Definition
%
Precip. Amount Definition
mm

Wind Dir Definition
10's deg

Wind Spd Definition
km/h
Visibility Definition
km
Stn Press Definition
kPa
Hmdx Definition


Wind Chill Definition


Weather Definition


00:00 7.3 6.9 98 0.5 11 6   101.33     LegendNANA
01:00 7.7 7.1 96 0.8 11 6   101.24     LegendNANA
02:00 7.1 6.7 97 1.2 11 9   101.11     LegendNANA
03:00 8.3 7.9 97 1.8 14 12   101.02     LegendNANA
04:00 7.0 6.6 97 1.3 11 12   100.92     LegendNANA
05:00 8.2 7.8 98 1.2 12 15   100.82     LegendNANA
06:00 7.9 7.3 96 1.5 12 17   100.73     LegendNANA
07:00 8.0 7.6 97 1.1 11 18   100.62     LegendNANA
08:00 8.6 7.9 96 0.7 12 18   100.53     LegendNANA
09:00 8.9 8.4 97 0.5 12 18   100.41     LegendNANA
10:00 8.9 8.3 96 0.5 12 17   100.27     LegendNANA
11:00 10.3 9.7 96 0.3 13 20   100.11     LegendNANA
12:00 10.8 10.2 96 0.3 13 20   99.96     LegendNANA
13:00 10.6 10.2 98 0.3 13 18   99.83     LegendNANA
14:00 10.9 10.6 98 0.5 13 18   99.70     LegendNANA
15:00 11.7 11.0 96 0.3 15 17   99.57     LegendNANA
16:00 11.9 11.3 96 0.0 14 17   99.45     LegendNANA
17:00 11.9 11.1 95 0.0 14 19   99.30     LegendNANA
18:00 12.5 11.6 94 0.0 20 25   99.30     LegendNANA
19:00 10.9 10.0 94 0.0 21 26   99.39     LegendNANA
20:00 10.1 9.7 98 1.4 21 15   99.44     LegendNANA
21:00 10.2 9.8 98 2.0 21 17   99.48     LegendNANA
22:00 10.1 9.8 98 0.0 20 21   99.47     LegendNANA
23:00 9.7 9.2 97 0.0 21 22   99.45     LegendNANA

Notes on Data Quality.

Legend

  • E = Estimated
  • M = Missing
  • NA = Not Available*
  • [empty] = Indicates an unobserved value
Date modified: